Flag for Canada Weather past 2 weeks in Peterborough, Ontario, Canada

Now
28 °F

Overcast.


Feels Like: 28 °F
Forecast: 34 / 43 °F
Wind: No wind

Location: Peterborough Airport

Current Time: Dec 27, 2014 at 1:02:06 AM

Latest Report: Dec 27, 2014 at 12:00 AM


Visibility: 9 mi

Pressure: 30.13 "Hg

Humidity: 100%

Dew point: 28 °F

Location of PeterboroughLocation

Historic Weather in Peterborough — Graph

°F

Peterborough temperature yesterday

Maximum temperature yesterday: 41 °F (at 3:00 PM)
Minimum temperature yesterday: 27 °F (at 11:00 PM)
Average temperature yesterday: 36 °F

Past Weeks' High & Low Weather Summary

 TemperatureHumidityPressure
High50 °F (Dec 24, 11:00 PM)100% (Dec 12, 7:00 PM)30.35 "Hg (Dec 12, 7:00 PM)
Low12 °F (Dec 20, 7:00 AM)51% (Dec 20, 3:00 PM)29.18 "Hg (Dec 25, 12:50 AM)
Average32 °F91%30.00 "Hg
* Reported Midnight between Dec 11 and Dec 12 — Midnight between Dec 26 and Dec 27, Peterborough, Weather by CustomWeather, © 2014

Note: Actual official high and low records may vary slightly from our data, if they occured in-between our weather recording intervals... More about our weather records

Advertising

Peterborough weather history for previous 24 hours

 ConditionsComfort  
Time TempWeatherWind HumidityBarometerVisibility
12:00 AM
Dec 27
28 °FOvercast.No wind100%30.13 "Hg9 mi
11:00 PM
Dec 26
27 °FPartly cloudy.No wind100%30.14 "Hg8 mi
10:00 PM28 °FPassing clouds.3 mph100%30.13 "Hg7 mi
9:00 PM28 °FPassing clouds.No wind100%30.13 "Hg8 mi
8:00 PM30 °FOvercast.No wind100%30.13 "Hg9 mi
7:00 PM32 °FMostly cloudy.No wind100%30.13 "Hg9 mi
6:00 PM36 °FPassing clouds.3 mph93%30.12 "Hg9 mi
5:00 PM37 °FPassing clouds.No wind87%30.11 "Hg9 mi
4:00 PM41 °FPassing clouds.5 mph76%30.10 "Hg9 mi
3:00 PM41 °FMore clouds than sun.8 mph81%30.09 "Hg9 mi
2:00 PM39 °FOvercast.9 mph81%30.10 "Hg9 mi
1:00 PM39 °FOvercast.8 mph81%30.12 "Hg9 mi
12:00 PM39 °FOvercast.8 mph81%30.14 "Hg9 mi
11:00 AM37 °FOvercast.7 mph81%30.18 "Hg9 mi
10:00 AM37 °FOvercast.7 mph81%30.19 "Hg9 mi
9:00 AM36 °FOvercast.6 mph87%30.17 "Hg9 mi
8:00 AM36 °FOvercast.6 mph81%30.16 "Hg9 mi
7:00 AM37 °FOvercast.6 mph75%30.16 "Hg9 mi
6:00 AM37 °FOvercast.7 mph75%30.14 "Hg9 mi
5:57 AM37 °FOvercast.8 mph75%30.15 "Hg9 mi
5:00 AM37 °FOvercast.8 mph75%30.13 "Hg9 mi
4:00 AM37 °FOvercast.9 mph75%30.13 "Hg9 mi
3:00 AM37 °FOvercast.9 mph75%30.12 "Hg9 mi
2:00 AM37 °FOvercast.7 mph75%30.09 "Hg9 mi
1:00 AM37 °FOvercast.9 mph81%30.08 "Hg9 mi
Weather by CustomWeather, © 2014

See weather overviewHow to use our weather pages